Lid_Strength_Index
1 1 1 1 0 0 0 0 0 0 0 -0 0 0 -0 3 3 2 2 0 -1 -0 -0 -1 -1 -0 1 1 1 2 2 2 2 2 3 1 1 0 1 0 -0 -1 -1
0 0 1 1 1 1 1 0 1 0 0 0 0 1 1 3 3 2 2 1 -1 -1 -0 -1 -1 -1 0 1 0 1 2 2 3 3 3 2 1 1 1 1 0 0 -0
3 1 1 1 1 1 1 1 1 1 1 1 0 -0 1 2 3 2 2 2 1 -1 -1 -0 -0 -1 -0 0 1 0 2 2 3 3 3 3 2 2 1 1 1 1 0
2 0 1 2 0 1 1 1 2 1 1 1 2 1 1 2 2 2 2 2 1 0 0 -1 -1 -0 -0 -0 1 1 1 2 3 3 3 4 3 2 2 2 1 1 1
-0 0 2 1 0 0 0 1 1 2 2 2 1 1 1 2 2 1 2 2 2 1 1 -0 -1 -1 -0 -0 0 1 1 2 3 3 4 4 3 2 2 2 2 2 1
-0 1 2 0 0 0 1 1 2 2 1 1 1 1 1 1 2 2 1 1 2 2 2 2 1 1 -1 0 1 0 1 2 2 3 4 4 4 3 3 3 2 2 2
0 1 1 0 1 2 1 1 1 2 2 2 2 3 2 2 1 1 1 1 2 2 2 1 2 2 1 -0 0 1 1 2 2 3 4 4 5 3 3 3 3 2 2
0 1 0 1 2 1 1 2 2 2 3 2 3 4 5 3 2 2 2 1 1 1 1 1 1 2 2 1 2 1 1 2 2 3 4 5 5 3 3 3 3 3 2
-0 0 0 1 1 1 1 2 2 2 3 3 3 4 6 7 5 4 3 1 1 1 1 2 1 2 2 2 2 2 2 2 4 3 4 5 5 3 3 3 4 3 3
-0 -0 1 1 2 1 2 2 1 2 2 3 3 3 4 5 6 6 3 2 1 1 1 1 1 1 1 2 2 2 2 3 4 3 4 5 6 4 4 4 4 3 3
1 0 1 1 1 2 2 1 2 2 2 3 3 4 5 5 5 5 6 4 2 1 0 1 1 1 2 2 3 2 2 4 5 4 5 6 6 4 4 4 4 4 3
1 1 1 0 1 2 1 1 2 2 2 3 3 3 4 4 5 5 5 5 5 3 1 1 1 1 2 3 2 2 3 4 5 6 6 7 7 5 5 4 4 4 3
3 2 1 1 2 2 2 2 2 2 3 3 3 3 3 3 4 4 5 5 5 4 3 1 0 1 2 3 3 3 4 5 5 7 8 8 7 5 5 5 5 5 4
2 2 2 1 1 1 1 2 2 2 2 2 3 3 3 3 3 3 4 5 6 5 4 3 1 2 2 3 3 3 5 5 6 7 8 9 8 6 6 6 6 6 5
3 2 2 2 2 2 2 2 2 3 3 3 2 2 3 2 3 3 3 4 5 7 6 3 3 2 3 3 2 5 6 6 7 8 8 9 8 7 7 7 6 6 6
3 1 1 2 3 3 3 3 3 2 2 3 2 2 3 2 2 2 3 3 4 4 6 4 3 3 4 3 3 6 6 6 7 8 8 9 8 7 7 7 7 7 7
3 3 3 4 4 4 3 3 2 1 2 2 2 2 2 3 2 2 3 3 4 4 5 3 2 4 4 4 5 7 6 7 8 8 9 9 8 8 8 8 8 8 8
3 4 4 4 4 3 2 2 2 1 2 2 3 2 2 1 2 2 3 3 3 4 4 4 3 4 5 5 6 7 7 8 8 8 8 9 9 8 8 9 9 9 9
3 2 2 2 2 2 2 2 2 2 2 2 2 2 2 2 3 2 2 3 3 3 4 4 3 3 5 7 8 8 8 8 8 8 8 9 10 8 8 9 9 9 9
2 2 2 2 2 2 2 2 2 2 3 2 2 2 2 2 2 4 2 3 3 3 4 4 3 3 5 7 7 9 10 9 9 9 8 10 11 8 8 8 9 9 9
2 2 2 2 2 2 2 2 2 3 3 3 2 2 2 1 1 1 2 2 2 3 4 5 3 4 5 8 8 8 9 9 9 9 11 11 12 12 12 11 10 9 9
3 3 3 3 3 2 5 5 3 3 3 3 4 3 2 1 2 2 1 1 1 2 4 4 3 4 5 6 7 8 8 10 11 9 12 13 13 15 13 14 9 9 9
4 3 2 2 2 3 6 6 5 3 4 4 4 3 3 2 2 2 3 2 1 2 2 4 4 3 3 4 6 7 8 8 9 9 12 14 13 16 14 12 9 10 10
3 3 2 1 2 2 5 7 6 5 5 4 4 4 4 4 3 3 3 3 2 1 1 2 3 2 2 3 5 6 7 7 8 9 8 14 13 15 14 13 10 10 10
3 3 2 3 3 3 5 6 6 4 4 4 4 4 4 4 5 7 4 4 3 3 2 5 7 8 7 7 5 4 6 7 8 9 8 12 14 15 15 13 13 9 10
5 3 3 3 3 3 5 7 6 2 3 3 4 4 6 4 7 7 5 4 4 3 1 1 3 6 8 7 7 3 5 6 7 8 8 12 14 15 16 12 14 12 13